When you browse on this site, cookies collect data to enhance your experience and personalize the content and advertising you see.
Visit our Privacy Policy to learn more. By continuing to use the site, you agree to this use of cookies and data.
  • în România
  • Lista ţărilor
  • Pe 7 zile
  • Temperatura apei
  • Meteo pe hartă
  • Widget-uri
  • user-avatar
    Intrare

    Meteo pe oră la Roma

    Astăzi, 30 Mai, Sâmbătă

    Timp Temperatura Precipitaţii Vânt Presiune Umiditate
    00:00 +15°C° 0.8 mm 1 m/s 760 mmHg 86%
    01:00 +14°C° 0 mm 2 m/s 760 mmHg 86%
    02:00 +14°C° 0.2 mm 2 m/s 760 mmHg 86%
    03:00 +14°C° 0.2 mm 2 m/s 759 mmHg 86%
    04:00 +13°C° 0.2 mm 1 m/s 759 mmHg 87%
    05:00 +14°C° 0 mm 1 m/s 759 mmHg 83%
    06:00 +15°C° 0 mm 1 m/s 759 mmHg 80%
    07:00 +18°C° 0 mm 1 m/s 759 mmHg 76%
    08:00 +19°C° 0.1 mm 1 m/s 758 mmHg 68%
    09:00 +21°C° 0.1 mm 1 m/s 758 mmHg 60%
    10:00 +22°C° 0.1 mm 1 m/s 758 mmHg 53%
    11:00 +23°C° 0.4 mm 1 m/s 758 mmHg 53%
    12:00 +23°C° 0.4 mm 2 m/s 758 mmHg 54%
    13:00 +23°C° 0 mm 2 m/s 758 mmHg 53%
    14:00 +23°C° 0.5 mm 2 m/s 758 mmHg 56%
    15:00 +21°C° 0.5 mm 3 m/s 758 mmHg 59%
    16:00 +21°C° 0.5 mm 3 m/s 757 mmHg 63%
    17:00 +20°C° 0.4 mm 2 m/s 757 mmHg 66%
    18:00 +20°C° 0.4 mm 1 m/s 757 mmHg 69%
    19:00 +20°C° 0.4 mm 1 m/s 757 mmHg 72%
    20:00 +19°C° 0 mm 1 m/s 758 mmHg 74%
    21:00 +18°C° 0 mm 1 m/s 758 mmHg 77%
    22:00 +16°C° 0 mm 1 m/s 758 mmHg 79%
    23:00 +16°C° 0 mm 1 m/s 758 mmHg 80%

    Mâine, 31 Mai, Duminică

    Timp Temperatura Precipitaţii Vânt Presiune Umiditate
    00:00 +15°C° 0 mm 1 m/s 758 mmHg 81%
    01:00 +15°C° 0 mm 1 m/s 758 mmHg 82%
    02:00 +15°C° 0 mm 1 m/s 758 mmHg 82%
    03:00 +15°C° 0 mm 1 m/s 758 mmHg 82%
    04:00 +14°C° 0 mm 1 m/s 758 mmHg 83%
    05:00 +15°C° 0 mm 1 m/s 758 mmHg 79%
    06:00 +16°C° 0 mm 1 m/s 758 mmHg 75%
    07:00 +18°C° 0 mm 1 m/s 758 mmHg 71%
    08:00 +20°C° 0 mm 1 m/s 758 mmHg 64%
    09:00 +22°C° 0 mm 1 m/s 759 mmHg 57%
    10:00 +24°C° 0 mm 1 m/s 759 mmHg 50%
    11:00 +24°C° 0.1 mm 2 m/s 759 mmHg 49%
    12:00 +25°C° 0.1 mm 2 m/s 758 mmHg 49%
    13:00 +25°C° 0.1 mm 3 m/s 758 mmHg 49%
    14:00 +25°C° 0.2 mm 3 m/s 758 mmHg 52%
    15:00 +23°C° 0.2 mm 4 m/s 758 mmHg 55%
    16:00 +23°C° 0.2 mm 4 m/s 758 mmHg 58%
    17:00 +22°C° 0.3 mm 3 m/s 758 mmHg 62%
    18:00 +21°C° 0.3 mm 3 m/s 758 mmHg 66%
    19:00 +20°C° 0.3 mm 3 m/s 758 mmHg 69%
    20:00 +19°C° 0 mm 2 m/s 758 mmHg 70%
    21:00 +19°C° 0 mm 2 m/s 758 mmHg 71%
    22:00 +18°C° 0 mm 2 m/s 759 mmHg 72%
    23:00 +17°C° 0 mm 2 m/s 759 mmHg 73%

    Poimâine, 1 Iunie, Luni

    Timp Temperatura Precipitaţii Vânt Presiune Umiditate
    00:00 +17°C° 0 mm 2 m/s 759 mmHg 75%
    01:00 +16°C° 0 mm 2 m/s 759 mmHg 76%
    02:00 +16°C° 0 mm 2 m/s 759 mmHg 77%
    03:00 +16°C° 0 mm 2 m/s 759 mmHg 77%
    04:00 +15°C° 0 mm 2 m/s 759 mmHg 78%
    05:00 +16°C° 0 mm 2 m/s 759 mmHg 74%
    06:00 +17°C° 0 mm 2 m/s 759 mmHg 71%
    07:00 +19°C° 0 mm 2 m/s 759 mmHg 67%
    08:00 +21°C° 0 mm 2 m/s 759 mmHg 59%
    09:00 +24°C° 0 mm 1 m/s 759 mmHg 51%
    10:00 +26°C° 0 mm 1 m/s 759 mmHg 43%
    11:00 +27°C° 0 mm 1 m/s 759 mmHg 41%
    12:00 +27°C° 0 mm 2 m/s 759 mmHg 40%
    13:00 +28°C° 0 mm 2 m/s 759 mmHg 39%
    14:00 +28°C° 0 mm 2 m/s 759 mmHg 40%
    15:00 +27°C° 0 mm 3 m/s 759 mmHg 41%
    16:00 +27°C° 0 mm 3 m/s 759 mmHg 42%
    17:00 +26°C° 0 mm 3 m/s 758 mmHg 46%
    18:00 +25°C° 0 mm 3 m/s 758 mmHg 50%
    19:00 +22°C° 0 mm 3 m/s 758 mmHg 53%
    20:00 +21°C° 0 mm 3 m/s 759 mmHg 56%
    21:00 +20°C° 0 mm 2 m/s 759 mmHg 59%
    22:00 +19°C° 0 mm 2 m/s 759 mmHg 62%
    23:00 +18°C° 0 mm 2 m/s 759 mmHg 64%

    2 Iunie, Marţi

    Timp Temperatura Precipitaţii Vânt Presiune Umiditate
    00:00 +18°C° 0 mm 2 m/s 759 mmHg 65%
    01:00 +17°C° 0 mm 2 m/s 759 mmHg 67%
    02:00 +17°C° 0 mm 2 m/s 759 mmHg 67%
    03:00 +16°C° 0 mm 2 m/s 759 mmHg 67%
    04:00 +16°C° 0 mm 2 m/s 759 mmHg 67%
    05:00 +17°C° 0 mm 2 m/s 759 mmHg 63%
    06:00 +18°C° 0 mm 2 m/s 759 mmHg 59%
    07:00 +19°C° 0 mm 2 m/s 759 mmHg 55%
    08:00 +23°C° 0 mm 1 m/s 759 mmHg 49%
    09:00 +25°C° 0 mm 1 m/s 759 mmHg 44%
    10:00 +27°C° 0 mm 1 m/s 759 mmHg 39%
    11:00 +27°C° 0 mm 2 m/s 759 mmHg 39%
    12:00 +27°C° 0 mm 2 m/s 759 mmHg 39%
    13:00 +28°C° 0 mm 3 m/s 758 mmHg 39%
    14:00 +27°C° 0 mm 3 m/s 758 mmHg 41%
    15:00 +27°C° 0 mm 3 m/s 757 mmHg 44%
    16:00 +26°C° 0 mm 4 m/s 757 mmHg 46%
    17:00 +25°C° 0 mm 3 m/s 757 mmHg 52%
    18:00 +24°C° 0 mm 3 m/s 757 mmHg 58%
    19:00 +23°C° 0 mm 2 m/s 757 mmHg 64%
    20:00 +21°C° 0 mm 2 m/s 757 mmHg 67%
    21:00 +21°C° 0 mm 1 m/s 757 mmHg 70%
    22:00 +20°C° 0 mm 1 m/s 757 mmHg 73%
    23:00 +18°C° 0 mm 0 m/s 756 mmHg 73%

    3 Iunie, Miercuri

    Timp Temperatura Precipitaţii Vânt Presiune Umiditate
    00:00 +18°C° 0 mm 0 m/s 756 mmHg 73%
    01:00 +17°C° 0 mm 0 m/s 755 mmHg 73%
    02:00 +17°C° 0 mm 0 m/s 755 mmHg 73%
    03:00 +19°C° 0 mm 1 m/s 755 mmHg 72%
    04:00 +19°C° 0 mm 1 m/s 755 mmHg 72%
    05:00 +19°C° 0.1 mm 1 m/s 755 mmHg 74%
    06:00 +19°C° 0.1 mm 1 m/s 755 mmHg 76%
    07:00 +19°C° 0.1 mm 1 m/s 754 mmHg 78%
    08:00 +19°C° 0.1 mm 2 m/s 755 mmHg 75%
    09:00 +20°C° 0.1 mm 2 m/s 755 mmHg 73%
    10:00 +20°C° 0.1 mm 2 m/s 755 mmHg 70%
    11:00 +21°C° 0.1 mm 3 m/s 755 mmHg 68%
    12:00 +21°C° 0.1 mm 3 m/s 755 mmHg 65%
    13:00 +21°C° 0.1 mm 4 m/s 755 mmHg 63%
    14:00 +21°C° 0.1 mm 3 m/s 754 mmHg 64%
    15:00 +21°C° 0.1 mm 3 m/s 754 mmHg 65%
    16:00 +21°C° 0.1 mm 3 m/s 754 mmHg 67%
    17:00 +20°C° 0 mm 3 m/s 754 mmHg 68%
    18:00 +20°C° 0 mm 2 m/s 754 mmHg 69%
    19:00 +20°C° 0 mm 2 m/s 754 mmHg 70%
    20:00 +19°C° 0 mm 2 m/s 754 mmHg 73%
    21:00 +19°C° 0 mm 2 m/s 755 mmHg 75%
    22:00 +18°C° 0 mm 2 m/s 755 mmHg 77%
    23:00 +18°C° 0 mm 2 m/s 755 mmHg 78%

    4 Iunie, Joi

    Timp Temperatura Precipitaţii Vânt Presiune Umiditate
    00:00 +18°C° 0 mm 2 m/s 755 mmHg 78%
    01:00 +17°C° 0 mm 2 m/s 755 mmHg 78%
    02:00 +17°C° 0 mm 2 m/s 755 mmHg 78%
    03:00 +17°C° 0 mm 2 m/s 755 mmHg 77%
    04:00 +17°C° 0 mm 2 m/s 755 mmHg 77%
    05:00 +18°C° 0 mm 2 m/s 755 mmHg 72%
    06:00 +19°C° 0 mm 2 m/s 755 mmHg 68%
    07:00 +21°C° 0 mm 2 m/s 755 mmHg 63%
    08:00 +23°C° 0 mm 2 m/s 755 mmHg 57%
    09:00 +25°C° 0 mm 3 m/s 755 mmHg 51%
    10:00 +27°C° 0 mm 3 m/s 755 mmHg 45%
    11:00 +27°C° 0 mm 4 m/s 755 mmHg 44%
    12:00 +28°C° 0 mm 4 m/s 755 mmHg 44%
    13:00 +28°C° 0 mm 5 m/s 755 mmHg 43%
    14:00 +28°C° 0 mm 5 m/s 755 mmHg 44%
    15:00 +28°C° 0 mm 4 m/s 755 mmHg 44%
    16:00 +28°C° 0 mm 4 m/s 755 mmHg 44%
    17:00 +27°C° 0 mm 4 m/s 755 mmHg 47%
    18:00 +25°C° 0 mm 3 m/s 755 mmHg 51%
    19:00 +24°C° 0 mm 3 m/s 755 mmHg 54%
    20:00 +23°C° 0 mm 2 m/s 755 mmHg 56%
    21:00 +21°C° 0 mm 2 m/s 755 mmHg 59%
    22:00 +20°C° 0 mm 2 m/s 756 mmHg 61%
    23:00 +20°C° 0 mm 2 m/s 756 mmHg 61%
    Arată mai mult